RH
5 5 5 6 6 6 5 5 5 3 3 3 3 3 3 3 3 3 3 3 2 2 2 2 2 1 1 1 1 2 2 2 1 5 7 11 21 30 37 41 39 36 34 31 23 21 22 26 35 35 29 28 31 34 43 47 48 62 61 44 38 34 32 40 44 47 51 54 57 60 68 72 68 67 71 72 72 74 75 76 74 73 77 77 72 69 73 83
5 5 5 6 5 6 5 5 5 4 3 3 3 3 3 3 3 3 3 3 2 2 2 1 2 1 2 1 1 2 1 2 1 4 7 9 18 28 36 39 38 36 34 32 26 21 20 24 29 28 25 28 31 32 38 41 43 52 46 32 31 30 33 40 41 43 47 51 53 58 64 67 68 68 71 74 72 74 74 72 71 71 76 75 70 71 75 80
5 5 5 5 5 5 5 5 5 4 3 3 3 3 3 3 3 3 3 3 3 2 2 1 2 1 2 1 1 2 1 2 1 3 6 9 15 26 35 37 36 35 34 32 28 22 20 28 32 28 28 30 32 32 37 39 37 40 33 23 28 31 32 38 40 40 43 48 51 58 64 65 70 72 72 73 68 70 72 68 67 71 81 77 69 73 75 78
4 4 4 5 5 5 5 5 4 4 4 3 3 3 3 3 3 3 3 3 3 2 2 1 2 1 2 1 1 1 2 1 1 3 6 9 14 24 34 34 33 35 35 31 27 25 24 31 33 29 29 32 34 32 33 36 32 32 29 22 25 30 31 34 38 40 42 49 51 57 63 62 67 72 71 69 67 70 70 67 66 68 82 85 75 70 68 77
4 4 4 5 5 5 5 5 4 4 4 3 3 3 3 3 3 3 3 3 3 2 2 1 2 2 2 1 1 1 1 2 2 2 5 9 13 22 31 30 30 34 34 31 28 27 27 28 27 26 28 28 33 31 29 34 30 26 29 26 23 27 29 32 38 40 42 48 52 56 58 59 62 66 67 64 64 67 65 64 64 64 74 85 83 70 68 80
4 4 5 5 5 5 5 5 4 4 4 3 2 2 3 3 3 3 3 3 3 3 2 2 2 1 2 1 1 1 1 4 6 3 3 9 13 20 29 27 28 33 33 31 29 28 27 26 25 24 25 23 29 32 28 29 25 20 28 29 24 26 28 33 40 40 42 46 49 52 54 57 59 58 60 59 57 62 65 65 64 66 72 81 82 72 73 84
5 5 5 5 5 5 5 5 4 4 4 3 2 2 2 2 3 3 4 3 3 3 2 2 2 1 2 1 1 1 1 9 13 6 2 7 13 20 27 26 25 30 33 31 29 27 25 25 25 25 25 24 27 33 29 25 21 17 24 28 26 28 29 36 43 41 44 45 44 46 49 55 57 55 58 57 53 56 62 65 65 67 73 79 79 73 77 84
5 5 5 5 5 5 5 5 4 4 4 3 2 2 2 2 3 3 3 3 3 3 2 1 1 1 2 1 1 1 0 8 15 10 3 5 13 21 25 25 24 28 32 31 28 25 23 24 25 24 26 27 28 31 27 23 22 19 21 24 29 31 33 41 45 44 45 44 43 43 45 51 53 54 58 58 54 53 54 62 65 65 69 75 80 79 80 81
5 5 5 5 5 5 5 5 4 4 4 3 3 2 2 2 3 3 3 3 3 3 2 1 2 1 2 2 1 1 1 3 11 13 7 4 11 19 24 24 23 26 31 31 28 25 23 23 24 24 25 28 31 29 24 22 22 21 22 24 30 33 36 44 48 47 46 47 46 39 39 47 50 51 53 56 57 54 53 60 65 63 64 68 73 76 78 80
6 5 5 5 5 5 5 5 4 4 4 3 3 2 2 2 3 3 3 3 3 3 3 1 2 1 1 2 1 1 2 1 5 11 9 4 7 15 22 23 21 24 30 30 28 24 23 23 23 23 23 23 27 27 24 24 21 22 25 28 34 36 37 43 46 45 44 50 49 34 33 41 45 46 47 52 57 57 56 59 64 63 61 64 68 71 72 76
6 6 5 5 5 5 5 5 5 4 4 3 3 2 2 2 3 3 3 3 3 3 3 2 2 1 1 2 1 2 5 4 1 6 9 4 4 11 18 21 21 23 28 29 28 25 23 23 22 22 22 20 22 23 25 27 24 22 24 29 38 39 40 44 44 44 43 47 48 36 31 38 41 43 44 47 53 58 60 61 64 64 61 63 66 68 70 71
6 6 6 5 5 5 5 5 5 4 4 3 3 3 2 3 3 3 3 3 4 3 3 2 2 1 2 2 1 3 6 6 2 4 8 5 3 8 15 20 21 22 26 28 27 25 22 21 21 21 21 20 20 23 25 26 27 28 26 28 39 45 46 48 46 47 46 43 46 41 34 36 39 41 42 44 51 57 61 63 65 67 66 63 62 63 65 67
6 6 6 6 5 5 5 5 5 5 5 4 3 3 3 3 4 3 3 3 4 4 4 3 2 2 1 2 2 2 6 7 5 4 5 4 3 5 11 17 20 22 25 26 26 26 23 20 20 21 20 19 20 22 27 30 29 31 33 29 38 50 49 49 48 47 48 43 42 41 36 35 36 38 42 43 49 54 58 62 62 63 64 62 63 63 63 65
6 6 6 6 5 5 5 5 5 5 4 3 3 3 3 4 4 3 3 4 4 4 4 3 2 2 1 2 2 1 3 5 5 5 5 3 2 3 8 14 19 22 23 24 26 26 24 20 20 20 18 19 19 20 27 33 29 29 38 35 36 43 42 48 54 47 45 43 40 39 37 38 37 37 43 44 48 51 53 60 62 62 63 61 63 64 66 69
6 6 6 6 6 5 5 6 5 5 5 4 3 4 4 5 4 3 4 4 4 4 4 4 3 2 1 2 2 2 2 2 2 5 6 4 3 2 4 10 16 20 21 23 25 26 23 19 19 18 18 20 19 19 21 27 33 33 37 42 41 36 31 44 58 52 48 46 43 43 40 40 40 39 43 46 48 49 49 57 64 64 63 63 62 63 69 73
6 6 6 6 6 6 5 6 6 5 5 4 4 4 5 6 4 3 4 5 5 5 4 4 3 2 2 2 2 2 2 1 1 3 5 5 3 2 2 6 12 17 21 21 23 25 23 17 15 16 18 19 17 19 20 26 39 38 34 40 41 33 27 39 57 61 60 54 46 46 42 38 39 39 42 45 47 49 48 53 61 61 60 63 63 64 69 72
6 6 6 6 6 6 6 6 6 5 4 4 4 4 5 7 6 5 5 6 6 6 5 4 4 2 2 3 3 3 3 2 2 2 3 4 3 2 2 4 8 14 18 20 22 24 23 18 14 14 16 17 16 17 19 22 31 37 38 39 36 32 26 32 48 57 63 59 46 43 42 37 37 38 40 44 45 47 50 53 58 57 55 60 64 63 65 67
6 6 6 6 6 6 6 6 6 5 4 4 4 5 6 7 7 7 8 7 6 6 5 5 4 2 4 6 5 5 5 5 6 5 4 4 3 2 3 5 7 10 14 18 20 21 23 20 17 16 15 14 14 16 19 17 21 29 34 35 37 35 26 26 35 43 52 53 43 40 40 35 34 34 35 38 42 44 47 51 55 54 52 58 65 65 63 64
6 6 6 7 6 6 7 6 6 5 4 5 5 6 7 7 10 12 10 9 10 10 10 10 6 4 6 7 8 9 9 9 10 8 5 4 3 2 3 7 9 10 12 16 18 19 20 19 18 16 13 12 11 15 17 16 17 20 22 27 34 33 27 28 32 36 43 43 40 41 41 37 35 35 34 35 41 45 45 48 51 52 51 52 61 67 66 64
6 7 7 7 7 7 7 6 6 5 4 5 5 6 7 9 17 18 12 12 16 11 9 14 10 6 10 10 11 12 10 11 10 8 6 4 3 4 5 8 11 11 11 14 16 18 18 18 17 11 8 8 10 13 15 15 17 18 22 27 30 28 26 32 37 41 43 41 41 43 44 45 47 49 46 43 42 44 46 47 47 50 52 51 59 69 68 64
6 7 7 8 7 7 7 7 6 5 5 6 6 7 8 10 16 17 11 12 20 15 7 11 11 9 12 13 13 13 13 14 11 9 7 5 5 6 8 9 12 13 10 12 14 15 18 18 13 6 4 7 10 13 13 15 16 17 24 30 29 26 27 34 38 38 42 42 40 43 45 46 54 61 55 48 45 44 46 47 45 48 53 56 62 70 69 65
6 7 8 8 8 8 7 6 6 5 5 7 6 8 10 11 13 15 12 8 13 18 11 7 7 9 11 13 14 14 16 18 15 12 11 9 8 9 12 11 11 12 10 12 14 15 17 15 9 5 7 9 12 13 12 14 15 17 24 28 30 31 36 47 43 32 37 42 39 42 43 41 53 63 56 49 49 48 49 50 46 47 52 55 58 63 67 69
6 7 8 9 8 8 8 6 6 6 6 8 8 10 12 12 13 15 15 8 6 12 11 5 4 7 11 13 15 15 15 16 14 14 16 14 10 9 12 12 10 11 11 12 13 15 15 10 6 8 12 12 12 12 11 13 15 20 25 26 30 31 35 46 45 36 38 42 40 40 41 42 52 59 54 51 52 51 51 50 47 47 50 52 55 56 59 70
6 8 9 9 9 8 8 6 6 7 8 8 8 10 11 12 13 13 12 8 4 6 8 8 6 6 12 14 13 14 15 12 10 14 18 16 12 10 10 12 12 12 13 13 13 14 12 7 8 11 13 13 13 11 11 13 12 17 23 23 26 28 26 30 34 36 38 40 40 40 43 47 52 56 53 52 54 53 50 50 51 51 50 52 57 53 47 60
6 8 9 9 9 8 7 6 8 10 9 9 9 10 11 12 12 10 10 9 5 5 6 12 11 6 11 15 12 14 16 12 10 15 19 16 13 11 9 13 14 12 14 13 13 14 10 9 12 13 13 14 14 12 11 11 11 18 24 20 19 23 26 28 29 33 37 39 37 38 46 53 56 56 51 49 55 59 59 57 55 54 54 55 61 61 53 58
7 8 9 10 9 8 8 8 10 12 10 10 11 10 9 12 15 12 11 11 8 7 8 14 16 10 10 13 11 14 16 13 13 17 20 18 15 11 10 13 14 13 14 14 15 15 10 10 12 12 13 13 13 13 12 10 12 20 22 18 18 22 26 27 27 31 34 36 36 34 41 55 58 50 45 49 55 63 69 69 67 66 63 60 63 66 64 65
7 9 9 10 9 8 9 9 11 11 12 14 14 12 10 14 19 13 17 31 27 14 13 16 18 14 11 11 11 12 14 14 15 18 20 19 16 12 11 13 13 12 13 14 15 14 11 11 11 12 12 11 12 12 10 9 11 12 12 18 23 24 24 22 24 31 31 33 39 37 37 48 51 42 48 60 60 64 71 72 72 72 73 76 75 69 68 71
8 9 9 10 9 8 9 10 11 11 12 14 14 14 14 16 16 13 32 57 45 20 17 19 18 15 12 13 12 9 10 11 12 14 16 17 16 15 13 12 13 12 12 14 14 12 12 11 10 11 10 10 11 10 8 8 9 9 12 20 24 22 21 22 27 32 30 33 43 45 42 48 49 43 53 59 51 51 56 57 55 50 55 70 82 81 73 73
8 9 9 10 8 8 10 10 11 11 10 13 14 14 16 18 16 20 42 55 36 19 21 19 15 13 12 15 14 10 9 10 10 9 11 14 16 16 14 11 12 12 12 13 13 12 12 11 11 10 9 10 8 8 8 5 9 16 20 22 25 27 25 27 34 32 29 35 41 41 40 51 59 50 47 45 36 35 40 46 50 45 43 49 67 85 81 74
9 10 10 9 9 9 11 11 12 12 11 13 15 12 13 17 19 30 44 40 25 22 23 19 14 11 11 13 12 10 10 10 10 10 11 12 13 16 15 12 12 12 12 13 13 13 12 11 11 9 8 9 6 7 6 5 12 21 25 27 31 38 37 37 36 28 31 38 37 36 34 43 58 53 42 39 35 33 35 43 49 49 51 48 57 79 83 76
9 10 10 9 9 9 10 12 12 12 13 13 14 13 12 16 26 41 45 31 22 24 22 20 17 13 12 12 11 10 9 10 11 11 13 12 13 16 16 14 13 13 13 13 12 12 12 11 10 9 8 7 6 6 5 9 18 19 22 28 34 40 39 38 33 28 39 43 36 38 35 35 45 42 37 38 38 39 41 44 44 46 58 61 62 77 81 76
9 10 10 9 9 10 11 13 12 12 12 12 14 14 11 19 31 37 37 28 23 23 20 20 19 16 15 14 12 11 8 10 11 12 13 13 14 16 16 15 14 14 13 13 12 12 11 10 9 8 8 6 6 6 5 11 19 19 21 25 31 36 33 34 36 35 43 45 37 36 32 31 37 33 31 36 39 46 52 53 50 53 68 69 65 75 77 71
10 10 10 9 9 11 12 13 12 12 12 12 14 12 15 31 33 22 23 28 26 22 19 19 19 17 16 14 14 13 10 10 11 12 13 11 13 17 16 13 13 14 13 12 12 12 10 9 9 8 7 6 6 7 6 8 11 17 21 23 28 34 36 41 46 43 46 47 41 36 30 32 36 33 34 37 42 53 62 64 61 63 71 67 65 76 75 66
10 9 9 10 11 12 12 12 12 12 13 13 14 13 20 32 27 14 18 27 29 27 22 19 17 17 15 14 15 14 12 11 10 11 12 12 14 16 17 15 12 12 12 12 12 11 10 9 8 8 7 6 7 7 7 7 7 12 16 15 18 24 30 39 45 47 50 48 41 36 34 35 36 35 35 35 42 56 63 65 68 72 74 68 71 81 78 70
10 9 9 11 12 12 12 12 12 12 13 14 14 14 18 18 16 22 28 29 32 31 26 21 16 16 15 13 14 13 11 11 11 11 12 13 14 15 17 17 14 13 12 12 12 10 10 9 7 7 6 6 6 6 7 7 7 10 10 8 11 14 15 24 34 35 37 45 46 39 35 34 33 35 37 34 37 49 59 63 68 76 78 75 76 78 77 73
10 9 11 16 18 15 12 12 13 12 13 15 14 14 13 8 13 29 33 31 32 30 28 23 15 14 16 13 14 13 12 11 10 12 13 13 14 15 15 15 15 14 12 11 11 9 9 8 7 7 6 6 6 6 7 7 8 10 10 7 10 13 13 21 33 30 33 53 58 47 42 37 34 35 37 36 37 45 55 60 65 74 78 75 74 72 72 71
10 10 18 31 34 25 17 12 12 13 13 15 15 13 11 8 14 28 32 31 32 31 32 27 17 14 15 13 13 12 13 12 10 11 13 14 14 13 13 13 13 13 12 11 10 9 9 8 7 7 6 6 6 6 7 7 8 10 10 9 11 15 15 20 34 41 53 71 64 50 48 41 36 40 37 36 40 46 55 61 68 77 77 74 73 72 70 69
13 21 30 41 45 40 32 22 14 13 13 14 14 13 11 8 14 26 30 31 31 30 32 29 21 15 12 11 12 11 12 12 10 10 11 12 12 11 11 12 12 12 12 11 9 9 9 8 7 6 5 6 6 7 8 7 8 8 8 10 13 17 17 17 25 34 54 77 69 53 53 44 35 39 37 35 37 44 56 65 71 78 77 74 74 74 71 67
19 32 40 46 50 49 44 34 25 17 13 13 13 12 10 8 14 26 29 28 29 30 30 28 24 19 14 12 11 10 11 11 10 10 10 11 11 10 11 11 12 12 11 11 10 9 9 8 7 6 5 6 6 7 8 7 8 8 9 12 13 16 17 16 20 21 39 72 72 58 59 49 32 30 30 31 35 42 52 58 65 75 76 73 72 73 71 66
22 31 40 48 51 48 45 40 35 24 13 11 12 11 10 8 15 26 28 26 27 30 31 29 26 24 20 17 14 12 11 10 10 10 9 11 11 10 11 10 11 11 10 11 10 9 9 8 7 6 5 7 7 8 8 7 8 8 10 14 13 14 15 16 22 19 29 60 72 71 70 46 25 27 28 29 35 41 47 50 55 67 72 71 71 71 70 68
26 36 43 47 49 48 45 41 39 31 21 18 17 15 12 9 15 24 26 26 28 30 31 29 27 25 22 21 20 18 16 12 10 10 10 10 10 9 9 8 9 10 10 10 9 9 9 8 8 6 6 6 6 8 8 7 8 8 10 14 14 15 15 19 28 24 21 36 49 60 61 36 22 29 29 30 37 41 48 51 51 60 67 68 70 70 69 69
32 48 50 47 51 52 47 45 45 41 37 37 36 32 26 24 28 30 31 32 31 31 31 29 29 27 22 20 19 19 19 15 10 9 9 10 9 9 8 7 8 9 9 9 8 8 7 8 8 6 6 6 7 11 12 9 10 10 12 14 15 17 16 19 31 29 23 27 29 36 42 30 25 29 26 30 39 42 48 53 54 58 63 66 68 69 69 70
43 59 61 58 58 54 47 48 50 49 51 55 54 50 46 43 41 39 40 38 33 31 33 32 31 29 26 25 22 19 19 17 14 12 10 9 9 8 8 7 7 8 9 8 8 7 7 7 7 6 6 4 4 10 14 12 12 14 15 15 14 18 18 19 25 25 26 32 31 36 43 33 26 28 27 32 40 43 47 52 54 58 61 64 67 66 66 68
49 61 66 64 59 55 54 55 55 56 59 60 58 53 48 45 41 41 44 40 33 33 37 35 34 31 27 26 24 20 18 18 17 15 12 10 8 8 8 7 7 8 8 7 7 7 7 7 6 6 7 8 11 15 14 13 13 14 17 17 16 19 20 20 22 23 30 36 32 36 41 33 28 29 29 34 41 42 46 52 55 58 60 61 63 64 65 66
46 56 61 61 55 54 60 61 62 66 64 58 54 48 43 41 38 40 43 39 32 34 37 37 37 34 29 27 24 19 17 16 16 15 13 10 8 8 8 7 7 7 7 7 7 6 6 7 6 6 8 15 24 24 17 15 16 16 17 17 17 19 21 22 22 23 29 32 28 29 30 28 28 29 30 38 43 41 47 56 58 58 60 60 61 62 62 62
38 49 55 60 59 56 58 60 61 66 64 57 51 46 43 41 38 38 42 38 33 33 35 38 39 34 30 30 27 21 18 17 15 14 12 11 10 8 8 8 7 7 7 7 7 7 7 6 7 6 6 10 17 18 14 14 16 16 17 18 18 20 22 23 23 24 26 26 26 27 27 26 28 28 30 37 42 44 51 55 56 58 58 56 57 60 61 62
32 45 49 56 62 60 59 62 63 64 63 59 53 48 46 44 40 39 40 39 35 34 36 38 38 35 32 30 27 25 23 19 16 15 13 12 12 10 7 7 7 7 8 7 6 7 8 7 8 7 7 10 13 14 14 14 14 14 15 18 19 21 22 24 25 25 25 25 27 28 27 28 28 28 30 35 40 46 50 52 53 55 54 53 56 61 63 63
24 39 45 49 56 60 61 64 64 60 59 58 54 49 47 46 45 43 40 38 35 35 35 35 35 34 31 30 31 30 25 19 18 19 17 14 13 10 8 9 9 7 7 8 7 7 9 9 8 9 12 17 19 19 19 18 15 14 17 19 20 21 22 24 26 26 25 25 27 28 29 29 28 27 31 35 39 45 50 52 53 53 52 54 58 61 61 60
16 25 35 40 45 53 58 60 61 59 58 58 55 51 49 47 46 47 45 41 38 38 38 37 37 35 30 30 35 34 29 27 26 23 21 19 13 9 10 14 13 9 8 9 8 9 10 9 9 12 17 21 22 21 21 21 19 18 20 21 20 21 23 24 25 27 26 25 26 27 28 27 26 27 32 36 39 46 52 53 52 51 51 53 57 59 59 58
15 17 26 32 38 46 50 50 52 56 58 59 57 52 51 49 47 48 49 47 43 40 40 40 38 34 31 32 34 34 32 34 31 24 23 24 17 11 12 13 13 11 10 10 10 9 10 10 11 17 20 21 22 21 20 22 23 23 24 23 22 22 24 25 24 26 26 27 28 28 27 26 27 30 36 39 40 44 49 49 48 49 50 51 54 56 56 56
15 15 19 26 35 43 44 41 46 54 58 60 58 53 51 52 51 49 50 50 46 41 41 42 39 33 32 34 34 32 30 29 26 22 22 23 18 15 15 13 12 12 11 11 12 10 10 10 13 19 22 21 21 21 21 21 22 25 26 25 24 23 24 26 26 26 27 28 29 29 28 27 29 33 40 42 41 42 45 45 44 47 51 53 53 54 55 56
17 16 16 20 28 36 41 43 49 58 64 65 64 59 58 60 58 53 52 51 49 45 44 44 41 34 33 34 32 29 29 28 26 23 22 21 19 17 16 14 14 12 11 13 13 11 11 11 12 17 21 21 21 21 21 20 22 27 29 26 26 26 27 28 28 28 28 28 29 30 29 29 30 33 38 42 43 44 44 43 44 48 52 53 53 55 57 57
Wind_Speed
13 13 13 14 14 15 17 17 17 17 16 14 14 13 11 10 9 9 8 8 8 8 9 10 11 11 10 9 9 8 6 5 7 10 12 18 22 21 17 15 12 10 9 8 9 7 4 2 2 4 7 10 12 14 16 12 2 3 6 3 12 18 17 14 10 12 12 10 9 8 8 7 7 7 6 6 6 5 3 3 3 3 2 4 7 10 14 17
13 13 13 13 14 15 16 16 17 17 17 15 14 13 11 11 10 9 8 8 8 8 9 10 11 11 10 9 9 8 6 5 6 8 12 18 21 21 18 15 14 12 10 9 8 7 4 2 2 3 6 9 12 13 10 4 8 11 5 7 15 15 15 13 11 12 12 11 10 9 8 6 7 8 7 7 6 7 5 3 4 3 2 7 9 12 15 16
13 13 13 12 13 14 15 16 16 17 17 16 15 14 12 11 10 10 9 9 8 8 9 10 11 11 11 9 9 9 7 5 7 9 13 17 19 22 19 17 17 13 11 9 9 8 5 2 1 3 7 11 14 12 3 7 9 8 1 10 15 12 13 14 12 13 13 13 10 9 9 8 8 8 8 8 7 7 5 4 6 7 5 8 12 13 15 15
13 13 12 12 12 13 15 16 16 16 17 16 16 15 14 11 10 9 9 9 8 8 8 10 11 11 11 10 9 9 8 6 9 11 15 16 19 23 20 19 19 15 13 10 10 8 5 4 1 5 11 12 13 9 6 12 5 5 6 11 14 11 11 14 14 14 15 13 11 10 10 10 10 9 8 8 7 8 7 5 6 8 8 8 13 13 12 14
12 12 11 11 12 13 14 15 15 16 17 16 16 16 15 13 10 10 9 9 9 8 8 10 11 11 11 10 10 10 9 7 9 12 14 15 19 23 22 22 20 17 15 12 10 6 4 3 4 9 14 15 11 4 11 15 8 5 10 12 14 9 9 14 15 15 15 14 13 13 12 12 12 11 10 9 8 9 8 6 6 8 8 6 10 11 10 15
12 12 11 11 12 13 13 15 15 15 16 16 16 16 16 14 11 10 9 9 8 8 8 9 11 11 11 11 11 11 10 7 8 13 14 15 20 23 23 23 22 19 16 12 10 6 4 1 5 12 19 14 5 4 13 12 5 1 9 11 10 8 9 14 16 16 15 14 14 13 13 13 12 12 12 9 9 10 9 7 6 7 6 4 6 8 9 13
13 12 12 12 12 12 13 15 15 15 16 16 16 16 16 14 12 11 9 9 8 8 8 9 11 12 12 12 12 12 12 8 7 12 15 16 20 24 23 24 23 20 16 12 9 6 4 1 6 12 20 13 7 9 12 7 4 4 8 10 7 8 10 14 16 16 14 13 14 13 14 14 12 12 12 10 10 11 11 9 8 9 6 1 4 8 9 11
13 13 13 12 12 12 13 15 15 15 16 16 16 15 15 15 13 11 10 9 8 8 7 9 11 12 13 13 13 13 12 10 8 8 13 17 21 23 23 24 24 21 16 12 10 8 5 3 8 14 18 11 6 10 9 2 3 4 7 10 8 9 10 13 15 16 15 13 14 13 13 14 13 12 12 12 12 12 11 11 10 10 8 3 2 5 8 9
14 14 14 13 12 12 13 14 15 15 15 16 15 15 15 14 13 11 10 9 8 8 7 8 11 12 13 14 13 12 12 13 10 6 10 16 21 22 22 23 24 21 16 12 11 9 4 4 7 14 15 7 4 6 4 4 1 5 8 9 10 11 11 12 14 14 15 15 13 12 14 14 12 11 12 13 12 12 12 12 11 10 9 6 3 3 5 7
15 14 14 14 13 12 13 14 15 15 16 16 15 15 15 14 12 11 10 8 7 7 7 8 10 12 13 14 13 12 12 14 13 9 8 14 20 23 23 23 24 22 17 13 12 9 4 3 5 9 13 6 3 4 6 8 2 7 9 11 11 9 10 10 10 11 14 15 11 9 15 15 11 10 12 14 12 12 12 11 10 9 10 9 5 4 3 5
16 15 15 14 14 13 13 14 15 15 16 16 15 14 14 13 12 10 9 8 7 7 7 7 10 12 13 14 13 12 13 15 15 12 9 12 19 22 23 23 23 22 18 14 12 9 5 3 2 7 9 2 2 3 5 7 3 7 7 11 14 9 9 9 7 9 11 13 11 9 14 15 11 11 12 13 13 12 12 11 10 9 9 9 8 5 3 4
16 16 16 15 14 13 13 14 15 15 15 16 15 14 14 13 11 9 8 7 6 6 6 7 9 12 13 13 13 13 14 16 16 15 11 11 17 21 23 24 23 22 19 15 11 10 7 8 3 5 6 2 3 4 3 3 3 8 4 6 14 11 9 9 6 8 8 9 11 9 13 15 11 11 12 12 12 11 11 11 10 9 8 8 8 7 5 3
17 17 16 16 15 13 13 14 15 15 15 15 14 13 13 12 10 8 6 6 5 6 6 7 8 12 13 11 12 15 16 17 15 15 13 11 14 19 22 23 24 22 21 16 12 12 10 10 7 2 4 5 2 4 3 3 5 8 7 3 10 13 10 9 5 7 7 6 9 7 10 14 11 10 10 9 10 10 10 10 10 10 9 8 8 7 6 5
17 17 17 16 15 14 13 13 14 14 15 15 14 13 12 11 9 7 5 5 5 5 7 7 8 11 13 12 14 17 18 18 16 14 14 12 12 16 20 22 24 23 22 18 14 13 12 12 9 7 7 5 3 2 1 6 12 13 11 6 7 13 11 10 7 5 7 7 9 8 10 14 11 9 7 7 8 8 10 10 9 9 9 9 8 7 7 6
17 17 17 17 15 14 13 13 14 14 15 14 13 12 10 10 8 5 4 4 5 6 7 7 8 10 12 14 17 17 17 18 15 13 13 12 10 12 17 21 23 22 22 19 16 14 14 13 9 8 11 10 8 6 5 8 13 17 13 11 11 9 8 12 10 6 6 8 10 7 8 12 11 9 6 6 7 7 9 9 7 7 7 8 8 8 8 7
16 16 17 17 15 14 13 13 14 14 14 14 12 11 9 8 6 4 4 4 5 6 7 7 7 8 11 16 17 16 17 16 14 12 12 11 10 11 15 18 21 22 21 20 16 14 15 14 9 10 13 11 8 6 8 8 16 19 16 14 14 10 9 14 13 10 9 8 7 4 5 9 9 8 7 6 6 5 7 8 6 5 6 8 8 8 8 8
16 16 17 17 15 14 13 13 14 13 14 13 11 10 8 7 6 5 5 5 5 5 6 6 7 8 11 14 15 15 13 13 11 9 10 9 9 12 14 17 19 20 21 20 18 15 15 15 12 11 12 13 12 10 12 13 17 21 20 17 14 13 11 12 14 16 14 10 5 5 7 8 7 7 6 5 5 5 5 7 6 4 6 7 8 8 8 9
16 16 16 17 15 13 13 13 13 13 13 13 10 9 7 6 7 7 7 7 6 7 7 6 5 6 8 9 9 9 8 6 7 8 11 10 9 11 15 16 14 17 20 20 19 17 16 16 14 14 15 17 16 15 16 15 12 15 20 19 17 17 11 8 13 16 15 12 7 8 9 7 8 7 6 5 4 3 3 5 5 4 5 6 7 7 8 9
15 15 16 16 15 13 13 14 13 12 13 12 10 8 7 7 8 10 10 9 9 9 7 5 5 6 7 9 8 6 4 5 7 9 11 12 11 11 15 16 12 12 17 19 19 17 16 15 16 18 19 19 18 16 15 13 10 10 16 17 21 19 12 9 12 14 14 12 9 8 8 8 8 7 6 5 4 2 1 3 4 3 4 5 5 6 7 8
14 14 15 15 14 13 13 14 14 12 12 11 9 8 7 7 10 13 13 10 11 13 10 7 7 9 11 12 10 7 5 5 8 9 10 13 13 11 14 16 12 10 14 17 17 16 15 16 19 20 18 16 15 14 13 13 13 12 13 17 22 17 13 12 13 17 15 11 11 9 8 9 9 7 6 4 4 1 1 1 2 3 4 4 5 4 4 6
14 14 14 14 13 13 13 14 14 12 11 10 8 7 7 8 11 16 15 10 11 14 13 10 11 15 16 14 11 9 6 5 7 6 9 13 13 14 16 16 15 13 13 16 14 13 14 18 21 17 13 11 10 10 11 14 16 14 13 22 24 15 12 13 12 17 13 8 11 11 9 9 9 9 7 5 2 2 3 3 1 3 3 3 4 3 3 4
14 13 13 13 13 13 14 14 13 12 10 8 6 5 6 9 12 16 17 12 9 12 14 12 12 17 17 14 12 10 9 10 9 7 11 15 15 17 18 15 17 15 12 15 15 13 16 22 21 14 9 10 10 9 10 15 18 14 18 24 24 17 15 14 10 11 10 7 10 11 9 7 8 9 7 4 1 2 3 5 4 2 2 2 3 2 2 3
13 13 12 12 13 14 14 14 12 11 9 6 4 3 6 8 11 15 18 15 8 11 13 11 10 16 19 15 12 10 12 14 12 11 14 16 17 18 18 16 14 13 14 16 18 18 19 18 14 11 11 14 13 10 9 14 17 14 26 27 25 20 13 13 14 11 9 7 7 9 7 5 5 7 5 2 1 3 4 6 5 3 3 3 2 2 3 3
13 12 11 11 13 14 14 13 11 10 7 5 5 6 7 8 10 14 16 18 10 7 10 8 8 18 21 15 12 9 10 14 12 13 16 16 18 18 17 15 12 13 16 16 17 19 19 10 6 10 12 14 15 13 13 17 20 16 28 25 22 19 8 9 16 15 11 8 8 8 7 5 5 4 4 2 2 4 6 7 6 6 5 5 4 3 3 4
13 11 10 11 13 14 14 12 9 8 6 6 7 7 8 8 11 13 12 15 10 5 9 9 9 18 21 16 14 8 8 15 13 12 15 15 17 18 16 16 14 14 16 16 15 18 20 12 8 12 12 13 17 17 17 19 17 18 30 21 14 15 11 12 17 16 13 11 11 9 5 5 7 5 5 4 3 5 6 7 8 8 7 6 6 5 4 4
13 11 9 12 13 13 13 11 7 7 6 6 6 8 10 7 9 10 9 12 9 5 9 9 8 13 19 20 17 11 10 17 16 13 14 12 13 15 16 17 15 16 16 15 16 19 19 14 14 17 16 16 20 21 19 20 16 18 21 16 13 15 15 16 16 16 14 10 10 8 5 6 8 6 6 5 5 6 6 8 8 8 8 8 8 8 7 6
13 11 9 11 14 12 12 10 7 6 6 7 6 8 10 7 7 6 6 9 6 5 8 9 9 8 13 20 19 16 14 15 18 18 17 14 12 13 17 18 15 15 15 14 17 20 15 12 14 17 19 20 24 27 20 16 22 16 9 16 19 16 15 13 12 13 12 11 11 9 7 7 8 6 6 7 6 5 6 8 9 8 8 9 9 9 9 9
14 11 9 11 14 13 11 10 7 7 7 7 7 8 7 7 7 3 2 4 1 5 7 8 10 7 10 17 16 14 11 10 15 19 20 18 15 15 18 19 17 15 15 14 19 20 16 16 17 16 20 23 26 25 14 10 20 15 8 16 18 12 8 9 14 15 11 11 13 12 8 4 4 4 5 6 4 6 7 8 8 9 9 9 9 8 8 10
14 12 9 11 14 13 11 9 7 7 7 6 7 7 4 4 4 2 0 1 2 5 6 8 11 9 9 14 13 10 9 9 8 11 18 20 17 17 19 19 18 17 16 16 20 21 20 19 18 17 19 20 20 17 11 11 12 8 13 16 15 11 9 12 16 14 10 9 10 14 13 4 3 5 6 5 4 9 11 10 8 9 9 8 9 9 8 9
13 12 10 11 13 13 11 8 6 7 6 7 8 6 3 2 3 4 1 0 2 4 7 8 11 10 10 13 12 10 12 12 8 9 17 19 16 17 18 18 20 19 18 18 21 23 22 18 15 18 18 13 10 8 8 11 10 19 23 21 17 16 17 16 15 12 8 6 8 13 14 6 2 6 7 6 6 9 10 7 6 9 9 8 9 11 8 7
12 11 11 12 13 13 10 7 7 8 6 8 8 6 4 5 6 5 2 2 1 3 9 11 12 13 12 10 9 11 15 14 11 12 18 20 18 18 17 19 22 21 19 19 21 23 22 19 16 18 18 12 9 7 5 6 15 20 20 24 22 18 18 16 12 10 5 2 7 12 11 7 4 6 7 7 7 9 7 3 5 7 9 9 11 10 7 6
10 10 11 13 14 13 9 6 7 8 8 9 8 6 7 7 9 10 5 3 0 3 9 13 14 15 14 10 8 11 16 16 14 15 18 21 21 21 20 20 21 19 18 16 18 21 22 21 18 16 16 14 12 11 7 7 17 19 23 29 24 13 11 9 5 5 3 2 8 9 4 4 6 8 9 8 8 9 5 1 4 6 9 12 12 9 5 3
10 8 10 14 14 12 9 7 8 8 8 9 8 8 9 6 8 15 9 2 5 6 7 12 13 13 13 11 9 11 14 15 15 14 17 21 22 22 21 20 20 19 15 13 13 17 18 19 20 16 14 14 14 13 12 10 11 18 28 30 20 10 5 3 2 1 1 3 8 8 1 2 5 6 6 5 5 7 6 4 3 7 12 11 9 7 5 3
8 7 10 13 12 10 8 7 8 8 7 9 9 9 11 9 7 12 11 3 8 9 5 11 14 14 12 8 6 10 13 14 15 12 16 23 23 23 21 18 19 20 17 15 12 13 13 12 16 17 13 12 13 12 12 13 12 15 17 14 11 10 6 3 3 4 4 4 7 7 3 2 4 5 5 3 5 7 7 6 6 9 13 9 7 9 8 5
6 7 11 11 9 8 6 7 7 8 8 9 9 11 15 16 9 5 6 5 10 10 9 9 14 17 13 7 5 10 13 13 13 11 16 24 23 22 22 18 17 19 20 18 14 14 16 15 15 17 14 14 15 14 13 15 15 13 12 11 8 7 5 6 6 8 9 6 4 6 4 5 7 8 8 7 8 9 8 7 9 11 13 11 11 12 10 8
5 8 8 6 5 5 4 5 6 8 9 9 11 15 18 18 11 4 3 5 9 11 12 5 14 20 16 12 10 13 14 13 12 13 19 24 21 20 20 19 18 19 20 21 18 15 15 17 16 14 15 18 21 20 16 16 15 12 14 13 6 5 6 9 9 8 10 5 2 5 4 6 9 9 11 12 11 9 9 8 10 14 15 15 14 12 10 10
4 5 3 7 9 9 7 4 4 7 9 10 12 16 17 16 12 6 4 8 11 14 17 8 11 18 18 16 13 14 16 16 14 17 21 22 21 21 21 21 20 19 19 21 23 21 14 16 19 16 13 14 20 25 20 18 16 13 16 16 6 5 5 6 7 6 5 3 2 6 6 8 9 8 11 15 14 11 10 10 13 16 17 16 14 11 10 11
2 3 6 7 9 10 10 8 5 3 5 10 13 15 15 13 11 6 6 11 15 17 17 10 4 13 17 15 12 13 17 18 17 20 22 22 21 22 21 22 22 21 19 18 23 25 20 19 20 18 16 13 13 24 26 20 18 15 13 14 10 9 4 4 2 5 3 1 2 6 8 11 14 13 11 14 15 12 12 15 18 19 18 17 15 13 14 13
2 5 5 4 7 8 9 10 10 8 4 8 12 13 13 11 10 7 8 14 17 16 13 9 5 9 10 11 12 14 18 20 20 21 23 22 21 22 22 22 22 21 20 20 23 24 22 21 20 17 17 14 12 19 29 25 21 17 11 11 12 9 1 9 9 7 7 3 2 3 4 9 14 14 10 10 11 12 14 18 19 19 18 17 16 16 16 13
0 3 3 3 6 9 8 9 11 10 6 7 9 11 12 11 10 6 7 14 16 16 17 15 13 14 12 9 10 12 16 21 23 22 23 22 20 20 19 19 22 22 19 21 23 23 22 22 22 18 14 15 19 17 29 29 24 21 15 14 12 6 5 9 3 5 7 5 4 2 2 8 8 8 9 9 9 11 13 14 16 17 18 17 17 18 16 13
1 2 2 3 7 10 8 9 10 8 7 8 11 11 11 11 9 7 10 15 16 17 18 16 15 18 17 14 11 10 12 17 24 25 23 22 21 19 14 13 18 22 21 23 24 25 25 25 25 23 18 18 19 12 24 28 26 25 20 15 9 6 6 11 4 5 6 5 8 6 3 7 5 5 9 10 10 12 12 12 14 16 17 18 17 17 15 14
1 0 1 4 7 7 7 10 10 8 10 13 14 13 11 10 10 10 14 16 16 17 15 11 15 19 16 14 14 12 10 12 20 26 24 22 21 18 12 9 13 19 23 25 23 21 23 24 23 22 20 18 12 4 11 13 16 18 15 14 7 7 2 8 7 10 11 9 11 8 3 4 4 4 8 10 11 11 10 12 14 15 16 16 15 15 15 14
1 2 1 1 4 4 5 10 10 10 13 13 12 10 9 10 10 10 14 14 11 9 10 13 21 21 16 16 19 17 13 12 15 20 22 22 20 17 14 10 12 17 21 23 22 21 23 25 21 15 17 20 15 4 7 8 9 9 13 14 13 4 9 6 8 13 14 13 11 6 2 4 6 6 8 10 12 10 10 12 14 14 14 13 13 12 12 13
4 7 5 4 2 2 5 10 10 11 11 9 10 10 9 9 10 10 12 12 7 4 7 15 21 19 17 19 20 19 14 12 13 15 19 23 20 17 16 14 13 18 21 20 21 22 23 25 21 12 10 14 12 4 6 10 9 6 11 10 10 9 11 10 9 7 8 9 6 3 1 3 5 6 9 12 13 11 10 11 11 12 12 11 11 11 11 12
3 9 9 8 6 4 3 7 8 9 10 10 11 11 10 9 10 9 8 7 7 8 9 15 19 17 17 19 17 15 13 14 16 15 14 17 17 13 12 14 15 17 19 17 15 18 21 23 23 17 9 6 4 2 3 7 6 4 6 6 8 9 9 11 8 4 7 6 4 5 4 4 4 7 10 14 14 10 9 10 10 11 11 10 11 11 10 10
5 7 10 9 8 8 8 8 8 8 11 13 12 11 10 9 8 7 5 3 8 13 13 15 18 16 15 19 18 13 12 13 17 18 14 12 14 13 13 16 17 15 16 14 9 11 17 18 18 20 19 15 8 2 2 4 2 0 1 2 6 7 5 7 8 6 9 4 5 8 7 5 4 7 11 15 14 12 11 11 10 10 10 10 11 11 10 10
7 8 8 9 9 11 11 11 11 10 10 11 12 11 11 10 7 7 7 5 7 14 16 14 15 14 14 18 18 17 16 11 7 14 13 10 12 13 13 17 17 12 13 16 11 9 11 11 12 16 18 13 7 5 6 8 7 4 3 0 4 5 3 7 9 6 3 2 5 8 7 5 4 6 10 14 14 14 14 11 10 9 10 10 10 11 11 11
7 8 9 8 8 9 10 10 10 11 10 9 10 12 12 12 10 7 7 7 8 12 18 18 15 12 11 14 18 19 15 10 8 8 8 6 6 5 12 18 17 11 10 14 16 13 9 7 7 10 11 10 10 10 9 6 3 2 2 1 1 0 2 6 6 3 4 8 6 7 5 5 5 6 7 10 11 11 12 12 10 9 10 11 12 13 12 13
9 8 8 10 10 10 9 8 8 8 8 9 10 11 12 12 11 8 7 8 8 9 15 18 16 13 9 10 15 18 16 11 11 14 15 11 2 9 14 14 14 12 10 10 13 13 10 6 3 6 12 15 15 13 11 10 10 6 1 1 2 2 2 6 4 1 4 8 6 7 6 6 6 5 3 6 8 8 9 12 12 10 10 12 13 14 13 14
10 9 8 8 10 11 10 9 8 7 6 7 9 11 12 12 11 10 8 8 8 9 14 16 16 13 9 6 8 12 12 12 13 13 15 13 3 9 11 8 7 9 11 12 12 15 15 10 6 11 16 15 12 12 10 10 11 10 5 4 3 1 2 7 5 1 6 8 7 8 9 9 8 6 6 7 7 9 10 12 13 12 11 11 12 14 14 14
11 10 8 7 7 8 9 9 8 6 5 5 7 10 10 10 10 10 8 7 7 10 13 12 13 12 7 3 2 5 8 10 10 8 10 10 3 4 8 6 4 6 10 8 9 15 17 13 12 16 16 12 9 11 11 9 7 8 9 9 6 2 4 7 7 3 5 7 12 14 12 9 8 9 11 12 11 11 13 13 13 12 12 12 13 13 14 13
10 11 10 8 5 5 6 7 6 4 2 1 3 5 6 8 8 9 8 7 5 7 10 9 10 10 7 6 2 4 6 10 9 5 6 7 2 2 6 8 6 5 6 2 3 12 14 13 14 15 14 12 8 10 11 7 3 6 10 11 9 8 8 9 9 6 7 9 12 15 12 8 8 10 12 15 15 14 14 14 13 13 13 13 13 14 14 14
Wind_Direction
330 330 333 336 339 342 342 343 346 344 338 337 340 340 331 322 316 307 301 291 275 254 240 232 229 225 221 216 210 218 220 206 197 193 191 190 189 184 176 167 166 164 161 154 143 151 154 96 8 355 19 20 5 11 359 342 41 151 213 199 50 49 38 36 38 42 49 51 59 68 82 87 78 81 77 84 96 99 130 189 185 196 192 153 171 189 190 189
327 328 330 332 336 339 339 339 343 344 338 334 335 337 333 325 319 311 306 297 283 261 244 232 230 225 222 215 209 213 210 207 182 181 195 192 186 181 175 169 171 174 175 170 156 156 141 80 350 352 21 21 5 12 20 21 156 176 193 66 54 49 46 45 43 46 51 49 57 69 84 91 79 77 76 79 91 100 105 98 100 95 138 160 170 189 193 194
324 325 327 329 334 337 337 337 340 343 338 333 332 334 332 326 320 315 308 301 289 267 247 233 229 225 222 215 209 207 204 197 157 175 196 187 182 179 176 172 176 183 182 178 164 152 141 155 295 329 345 6 4 359 93 147 149 174 210 50 57 55 52 52 50 50 50 47 55 71 81 86 85 83 82 84 83 90 88 69 84 89 105 160 170 183 193 196
323 323 324 327 332 335 336 334 337 341 338 333 330 331 331 325 320 316 310 304 294 273 251 234 228 222 221 215 208 204 199 189 167 188 194 180 180 179 176 174 180 190 187 185 173 166 179 197 332 339 329 348 360 347 199 192 173 107 58 49 55 54 52 55 58 58 54 53 62 73 80 85 88 87 83 82 74 77 82 65 73 91 101 151 175 182 190 196
323 322 322 324 329 333 334 332 335 339 337 333 329 329 329 325 318 314 311 306 297 279 255 234 226 221 219 213 207 201 195 194 183 195 195 180 180 181 179 176 183 195 191 190 183 190 223 209 2 358 346 345 351 357 177 189 195 99 67 55 49 46 53 63 69 67 63 65 75 79 79 82 85 88 81 77 77 78 84 76 68 88 102 145 177 179 187 196
322 321 321 322 326 330 332 331 332 337 336 332 329 328 328 326 319 314 311 305 298 284 260 235 227 219 216 212 207 201 192 189 185 194 196 185 180 182 182 178 186 197 195 194 188 202 225 241 3 7 6 7 27 135 165 170 192 87 83 81 60 54 60 75 82 77 76 76 81 82 78 78 77 80 76 72 81 81 80 74 63 75 95 141 163 168 191 198
319 319 319 320 323 326 329 329 330 335 334 331 329 328 328 326 320 313 309 304 296 284 264 238 226 217 216 211 207 204 190 174 173 189 195 189 183 183 184 181 187 198 198 193 187 198 205 46 18 8 10 30 98 160 171 129 66 20 90 107 87 77 69 83 90 84 91 84 80 79 77 80 73 73 72 66 70 74 76 70 59 66 79 108 136 157 185 195
314 315 315 318 321 323 326 326 328 333 332 329 328 328 327 326 321 314 309 303 294 284 266 241 226 217 215 211 210 206 192 179 165 176 192 190 185 185 186 183 188 197 199 191 186 199 195 79 30 8 10 38 101 158 167 75 34 22 87 128 119 98 82 91 97 91 99 90 82 81 78 82 73 69 69 63 60 63 69 66 61 63 73 80 112 162 185 190
311 311 312 315 319 321 323 323 326 331 331 328 327 327 326 326 322 315 309 302 294 283 266 242 226 219 215 212 212 204 195 195 183 170 190 192 186 187 189 186 188 194 200 194 186 198 178 76 20 8 20 65 149 175 191 316 2 88 94 129 124 104 92 99 102 96 98 91 86 82 77 77 71 69 69 66 60 58 63 64 62 59 67 78 102 164 198 201
309 309 310 313 316 320 321 321 324 329 330 326 326 327 326 326 323 317 310 301 293 282 267 244 226 219 217 213 211 203 197 202 200 192 195 192 188 190 191 189 189 191 200 198 189 190 155 42 356 18 28 77 169 258 267 302 316 124 114 119 119 104 97 107 110 101 98 98 96 76 75 75 71 72 69 69 65 61 63 64 66 58 61 68 79 121 179 211
307 308 308 309 313 318 319 319 321 327 328 324 325 326 326 327 324 319 310 299 293 281 267 246 227 218 218 215 210 204 200 206 206 200 199 191 188 192 193 191 190 190 198 201 191 174 164 267 347 44 10 42 124 310 275 295 270 166 138 120 122 111 104 113 115 107 99 104 104 74 75 79 75 74 68 69 65 60 62 62 65 60 60 67 73 90 128 185
304 306 306 307 310 315 318 317 319 324 326 323 324 325 326 327 325 320 308 298 292 281 269 250 230 217 218 216 211 207 204 210 209 200 199 193 189 193 194 193 191 191 198 201 190 173 197 224 165 27 325 177 109 355 329 315 221 183 189 129 127 123 116 117 119 120 110 106 106 84 78 83 80 75 70 71 67 61 62 63 67 64 63 65 68 71 77 119
302 303 304 304 306 311 316 316 317 322 324 322 322 324 326 327 326 319 304 296 289 281 272 254 235 220 214 208 208 211 207 212 212 201 197 192 191 193 194 196 193 193 197 199 192 187 213 212 176 268 245 162 99 1 345 299 266 221 216 210 139 134 129 129 137 134 133 117 103 90 86 93 92 81 72 73 73 70 69 67 67 67 66 65 64 64 60 62
301 300 302 302 303 308 314 314 315 320 322 321 320 322 326 327 325 314 297 291 284 280 274 262 245 224 208 199 209 215 212 213 210 203 200 194 191 193 194 197 195 195 195 198 198 195 215 209 187 209 195 192 219 157 246 266 269 246 211 214 163 144 131 135 156 160 155 137 107 96 97 103 104 93 79 72 75 76 75 69 62 62 64 65 67 67 67 62
301 300 300 300 301 305 311 313 314 317 319 319 318 320 324 326 323 305 277 275 281 280 277 271 255 231 206 201 214 219 220 223 211 195 200 202 199 196 195 198 198 198 197 201 200 197 216 213 198 208 188 187 197 187 275 264 242 240 214 176 162 161 144 143 161 182 177 146 116 103 101 107 107 101 92 82 78 77 80 76 62 60 61 62 63 63 67 70
301 299 298 299 300 303 309 311 313 316 317 316 314 315 320 320 312 281 246 253 273 280 281 274 257 230 205 207 219 223 225 232 221 193 188 197 205 202 196 197 198 200 202 205 203 198 212 218 217 215 197 198 219 239 283 241 208 229 231 188 172 188 170 151 162 177 189 170 126 114 109 104 105 102 98 97 91 83 83 82 71 65 67 64 63 63 64 68
301 300 298 299 300 303 307 309 313 314 313 313 310 310 314 305 290 259 231 238 260 272 277 273 258 228 208 212 221 229 234 241 242 221 204 202 203 201 196 192 195 201 204 207 208 200 206 221 227 223 221 232 241 254 273 254 212 213 224 206 186 191 177 159 166 169 182 188 149 134 126 100 99 94 85 92 92 93 86 84 84 79 79 72 66 67 68 69
302 299 297 299 301 304 307 309 312 312 311 311 304 304 304 288 274 254 234 232 241 254 264 267 258 225 206 204 210 229 245 245 249 242 228 219 207 203 194 182 185 199 204 209 210 204 210 223 234 241 243 236 234 249 263 259 225 206 220 213 189 189 190 173 168 158 164 176 162 144 133 108 102 85 68 63 59 77 89 95 107 98 90 84 76 75 72 73
303 299 297 299 301 305 308 309 312 312 310 306 299 299 295 279 272 262 251 248 245 243 246 244 225 200 186 174 168 187 202 205 217 226 226 213 206 205 191 175 169 191 202 208 208 207 214 223 236 243 235 224 226 237 243 250 261 273 263 226 184 181 188 176 162 146 142 145 138 133 123 109 105 90 78 69 50 56 80 96 116 115 103 97 89 84 79 79
304 299 296 298 302 307 310 310 313 312 309 303 297 295 287 275 268 266 268 272 266 248 229 218 195 163 154 154 149 156 174 206 213 217 218 201 197 200 189 175 167 189 201 202 206 209 215 227 237 233 223 219 220 229 244 258 268 284 269 211 177 175 175 169 160 145 137 125 123 127 119 115 120 122 121 94 52 27 242 171 131 122 109 104 99 93 91 91
305 299 296 298 302 308 311 312 314 312 308 301 294 296 292 277 269 274 277 273 268 258 239 219 187 160 150 146 146 149 163 214 215 200 197 188 182 185 187 179 177 198 204 193 199 206 214 229 231 222 215 216 217 234 254 262 267 270 231 186 173 179 166 160 160 146 143 132 135 142 135 131 137 142 142 125 55 345 254 236 205 127 115 122 121 117 121 106
304 297 294 298 303 309 313 313 315 312 307 300 292 300 292 277 276 280 282 272 248 251 246 230 205 181 165 151 151 159 173 207 217 190 177 179 177 178 185 187 187 200 203 191 191 198 221 229 223 217 228 242 236 238 259 271 275 255 203 181 173 172 151 152 166 153 149 143 145 151 145 150 151 146 146 144 157 297 256 250 248 183 157 170 141 140 181 137
302 295 292 298 303 311 314 314 315 311 303 294 281 270 263 271 279 278 285 289 253 232 243 242 220 188 169 159 163 177 190 200 208 194 177 177 179 179 186 192 196 204 203 197 191 199 221 221 209 217 250 267 256 245 263 278 277 222 183 179 176 169 155 165 174 168 166 153 158 163 152 166 162 144 149 158 240 261 252 253 245 222 225 224 173 153 201 190
301 292 291 297 305 314 314 314 316 308 295 276 254 243 245 254 270 271 281 291 279 236 234 235 217 186 171 171 174 179 202 198 199 199 187 181 184 188 190 188 198 205 196 192 193 209 223 206 186 227 249 266 266 271 269 270 279 232 189 186 180 171 168 174 164 158 167 160 160 165 153 166 164 149 166 176 263 265 259 255 243 229 226 229 206 173 187 193
300 288 289 298 308 316 314 315 314 299 289 271 257 251 247 243 260 270 282 291 290 243 212 208 211 191 178 183 177 164 210 204 198 206 200 189 187 193 192 185 197 202 191 191 205 226 230 220 231 237 242 259 263 272 271 270 273 206 191 205 196 170 159 152 147 147 163 166 159 158 147 154 163 180 200 203 234 246 255 254 246 238 225 224 217 200 210 213
300 286 291 301 310 318 313 313 304 288 283 266 261 262 258 251 263 275 292 299 290 220 206 198 200 195 188 194 186 168 198 207 202 203 208 202 190 192 191 189 198 197 191 197 216 233 230 220 234 240 245 258 256 257 266 273 254 188 186 220 212 173 152 142 141 147 159 163 153 146 120 135 169 202 220 213 217 229 251 254 245 245 236 230 229 224 230 233
300 286 292 305 314 319 311 306 290 270 261 248 257 270 267 255 256 278 311 312 301 197 203 195 185 188 192 199 199 189 193 207 206 203 206 204 194 195 193 193 200 194 189 202 220 229 228 221 233 243 252 258 256 258 267 262 242 230 222 214 192 162 143 139 143 150 152 146 145 145 117 130 176 206 203 197 210 225 235 239 240 252 246 232 238 240 238 241
301 287 292 309 316 319 309 300 279 255 242 237 259 268 267 258 246 260 355 331 344 166 187 185 177 169 183 200 211 208 198 202 207 208 207 199 196 206 202 196 200 197 193 210 228 232 235 244 251 255 259 259 257 260 268 239 233 246 235 194 172 139 135 151 153 152 149 146 155 164 152 145 206 203 163 173 237 272 262 253 260 277 270 247 242 240 235 237
302 288 292 311 317 317 308 297 276 259 245 232 252 254 260 286 241 176 98 290 141 167 177 173 178 176 182 200 215 216 208 203 201 207 204 194 191 207 212 203 201 209 210 221 242 245 242 250 261 267 268 265 261 259 259 246 225 169 150 164 156 148 152 149 153 153 150 160 169 172 166 161 244 216 171 156 227 275 280 272 268 267 257 251 246 237 239 240
301 289 295 313 317 314 305 296 270 251 242 226 242 251 240 236 187 169 202 100 112 183 199 188 187 192 196 203 209 205 207 211 202 195 198 195 192 201 216 216 212 225 232 233 246 249 248 256 265 267 268 269 265 254 253 249 196 147 149 154 151 161 158 152 163 162 157 181 176 172 176 177 258 237 216 201 218 255 273 276 273 252 226 222 233 230 239 244
297 288 298 314 318 313 301 288 258 235 223 218 230 245 212 178 187 202 203 179 159 214 216 205 195 208 219 215 209 196 198 205 198 193 198 202 203 203 215 222 222 234 242 244 247 244 249 257 256 256 255 254 253 247 258 217 171 160 166 161 151 155 161 163 177 173 171 226 169 171 186 197 230 259 257 251 236 241 258 283 295 261 215 209 225 225 232 241
292 283 301 315 316 310 296 275 251 231 218 212 213 218 198 180 204 217 195 160 241 288 233 212 199 213 225 230 227 199 195 203 198 199 207 207 204 204 212 220 222 231 242 251 251 247 250 250 247 246 240 239 248 247 249 191 169 170 173 163 149 144 166 179 196 192 187 150 164 177 195 220 242 270 284 276 246 235 234 245 281 251 217 215 221 220 221 230
289 281 304 314 312 304 290 266 242 232 223 210 203 201 190 176 214 221 208 137 14 340 252 219 210 215 219 226 227 204 204 210 198 199 216 212 204 205 213 221 223 226 239 251 255 258 258 248 240 237 227 230 243 247 249 240 207 181 172 167 158 145 158 203 221 204 186 141 162 176 199 291 254 262 278 275 239 225 208 189 211 227 227 227 217 210 210 190
289 292 312 314 308 297 283 264 241 231 224 211 205 197 192 199 224 222 218 271 352 350 295 241 220 202 205 228 223 200 210 209 196 206 219 209 202 205 210 218 224 227 236 246 252 255 259 250 230 221 219 226 234 242 252 253 230 190 182 195 198 179 167 197 190 155 158 149 153 167 187 238 227 239 246 226 207 205 198 188 180 210 229 229 210 212 218 208
291 310 319 314 308 300 280 262 244 229 222 215 209 203 209 218 222 207 218 290 345 355 337 275 218 193 196 217 202 198 208 202 197 212 210 201 202 208 213 221 225 227 231 236 241 241 248 248 222 210 224 237 236 235 244 247 232 210 228 260 247 207 168 123 121 138 145 137 158 184 197 209 222 245 245 238 231 209 195 196 191 202 215 212 214 222 224 227
308 321 329 347 357 349 313 269 248 231 222 216 213 217 227 228 220 217 260 336 360 359 349 300 200 194 197 198 199 207 215 215 202 194 194 199 210 217 222 231 231 228 228 229 230 230 241 245 230 224 235 240 242 238 229 231 228 212 226 243 248 229 186 124 112 135 137 119 209 217 215 219 228 243 241 246 253 225 206 211 201 199 205 209 220 229 231 244
322 334 56 61 45 36 17 333 263 238 226 222 224 231 242 239 224 237 332 3 0 343 334 317 201 207 207 199 206 210 219 226 208 195 197 201 215 226 228 233 235 231 226 226 229 229 238 251 242 234 239 248 248 241 232 227 225 212 216 227 213 156 153 113 116 141 126 83 237 229 234 231 223 227 233 239 245 230 212 206 196 197 207 212 218 228 239 255
358 83 108 69 37 35 26 18 6 314 243 234 238 245 254 244 223 241 312 336 340 333 325 322 251 235 222 208 214 205 209 220 207 205 212 211 221 232 233 232 232 232 226 222 230 234 239 251 245 228 240 276 260 231 227 224 221 219 217 216 190 140 84 346 215 164 128 53 253 236 239 237 227 222 229 236 238 228 204 194 193 200 212 214 213 224 239 251
69 120 122 74 35 23 17 20 17 1 305 259 257 259 262 245 219 236 309 328 332 330 321 320 315 279 243 221 227 211 207 214 208 210 218 219 227 236 237 235 232 232 226 218 226 234 236 246 250 234 234 276 290 233 222 218 211 215 217 200 181 149 90 276 242 182 155 158 219 237 253 250 233 223 228 238 238 228 208 200 199 203 213 219 218 227 239 248
71 168 164 104 54 28 18 18 14 2 340 306 290 281 277 263 232 230 327 334 326 318 308 299 298 303 301 280 254 235 226 222 215 217 220 218 226 237 240 239 233 229 222 216 224 233 234 241 251 245 236 278 303 258 220 215 208 204 200 179 158 135 211 233 227 144 158 159 148 136 268 253 228 213 224 236 237 231 224 217 208 204 211 222 226 231 240 247
294 209 183 94 48 32 25 17 7 357 358 356 335 318 308 295 265 263 321 332 322 305 291 286 295 301 301 298 294 286 267 240 224 222 222 218 224 237 239 234 231 224 214 213 220 227 231 235 244 253 263 287 300 254 214 218 215 207 198 171 115 44 211 195 129 123 166 160 158 158 229 241 213 196 219 232 237 231 228 223 214 208 213 222 228 234 243 246
303 31 38 42 30 27 26 16 2 340 346 350 340 334 332 325 313 315 331 333 316 292 273 285 319 317 307 301 299 299 303 274 233 220 221 222 228 241 244 232 226 215 209 215 219 222 228 233 241 254 266 280 294 223 188 204 203 195 177 159 135 37 88 168 156 162 162 151 164 176 217 227 205 201 216 229 233 226 220 216 212 210 215 222 231 237 242 245
145 119 93 4 13 20 10 5 352 338 342 339 334 334 328 323 318 324 341 335 305 273 260 292 315 317 318 320 307 293 298 295 251 228 229 229 236 253 252 236 220 205 203 214 220 220 224 226 233 246 255 266 277 244 152 149 161 144 114 142 174 111 56 92 146 160 160 158 164 169 210 220 207 209 218 223 222 212 203 205 208 211 216 222 230 237 241 244
164 160 172 214 198 71 348 334 329 332 330 316 321 321 296 284 280 299 342 339 299 239 260 302 319 315 313 321 308 289 285 285 270 261 250 236 240 258 248 228 216 205 203 211 218 218 216 219 224 232 258 275 282 263 158 159 173 138 89 109 141 104 78 98 117 134 153 164 180 185 236 240 208 202 216 216 213 206 194 190 200 213 218 221 229 238 244 249
213 189 195 222 222 191 248 284 300 323 320 306 318 324 299 274 263 282 336 334 263 242 268 312 331 318 310 324 319 296 281 268 263 272 269 244 240 257 246 217 208 211 211 207 214 219 218 220 222 221 230 250 264 318 106 129 137 119 89 83 87 89 104 112 99 112 144 150 230 238 258 279 227 206 215 212 208 202 183 177 192 212 222 225 232 243 253 264
306 238 212 213 227 223 223 245 267 295 308 304 311 325 322 307 277 270 309 296 237 235 259 309 330 319 317 337 344 339 321 286 260 262 275 265 252 263 258 220 202 209 206 187 182 208 211 215 221 224 232 232 223 228 189 181 194 37 74 78 79 87 101 86 74 112 136 137 254 251 262 276 245 224 218 211 206 195 181 181 193 209 224 232 238 248 260 276
315 283 246 216 219 228 228 234 248 266 293 305 311 319 322 323 307 263 256 262 239 236 252 289 321 332 341 351 360 3 359 354 302 273 275 278 275 272 242 203 188 191 191 181 186 209 212 219 227 227 229 224 195 151 161 194 224 263 298 89 103 95 62 47 60 92 100 351 279 263 262 251 262 260 229 217 209 193 191 202 209 219 235 242 244 247 257 274
302 291 276 252 241 242 239 238 244 256 274 294 306 308 304 309 315 292 256 245 242 248 256 269 293 322 347 1 10 12 16 36 36 357 336 313 283 227 181 171 167 170 178 183 194 210 226 236 232 213 190 151 123 112 105 114 159 262 278 204 145 82 43 42 57 84 5 343 296 260 248 242 275 280 239 227 219 199 198 210 218 231 242 242 241 243 256 276
294 288 280 268 266 267 266 267 266 263 272 286 294 298 298 299 303 303 283 257 244 244 255 270 290 306 321 349 13 23 28 25 16 15 9 355 14 145 155 160 160 176 208 214 201 205 225 239 235 193 160 129 114 111 99 87 83 72 58 65 3 332 35 27 28 166 327 319 271 237 234 245 268 272 228 221 220 206 204 211 220 238 246 243 243 246 260 278
288 284 276 267 270 274 274 277 280 278 278 285 288 288 294 299 292 288 281 267 257 240 246 268 282 287 303 344 17 28 30 19 12 17 10 356 14 126 141 157 152 169 209 233 222 212 221 224 187 155 148 137 132 132 119 102 88 73 68 62 24 252 87 37 39 203 268 269 224 217 239 240 232 221 207 210 215 212 214 222 235 247 249 245 245 251 264 278
287 285 277 264 261 267 274 273 270 274 277 281 283 277 286 300 289 274 264 257 257 247 251 274 281 275 286 313 5 38 53 53 50 38 15 3 358 99 115 128 106 152 188 221 225 212 213 207 174 151 142 136 145 146 136 130 100 70 76 77 52 58 107 78 79 128 220 215 194 203 224 227 211 204 207 214 221 221 224 236 248 252 249 248 253 261 269 277
287 290 288 286 277 261 269 264 245 238 235 274 286 283 316 329 298 270 257 239 227 243 256 281 288 275 277 283 280 95 72 49 58 69 24 25 54 158 151 142 110 142 184 230 223 206 205 197 179 162 143 128 131 140 137 138 105 65 82 88 72 63 86 99 99 125 180 201 208 211 210 207 205 205 208 213 215 220 231 245 252 250 248 252 261 269 272 276